COSMOS 249 DEB, 20011

Orbit data source: Space-Track

COSMOS 249 DEB, 20011 is space debris in LEO originally from a launch on Sun, 20 Oct 1968 UTC launched from the Tyuratam Missile And Space Complex (TTMTR). Debris objects in space refer to the collection of defunct objects orbiting the Earth. Examples of debris include non-operational satellites, rocket bodies, and fragments generated from explosions, collisions, or faulty payload assembly.

Loading next visibility...
Identifier
20011, 1968-091DN
Orbit
LEO
Country
Flag of CISCIS
Related business
Manufacturer
Unknown
Mission
Spacecraft
Bus & Motor
Unknown
Mass
Unknown
Launch date (UTC)
1968-10-20 (58 years ago)
Launch vehicle
Unknown
Launch site
Tyuratam Missile And Space Complex (TTMTR)
Object type
Payload
Rocket body
Debris
Shape & HBR
Unknown shape, 0.1 m
Radar Cross Section
Small (<0.1 m²)

Expand to show TLE details & history
Last TLE update: 9 hours ago

TLE from 9 hours ago
0 COSMOS 249 DEB
1 20011U 68091DN  26126.16017527  .00001913  00000-0  21376-2 0  9999
2 20011  62.2239 176.6903 0624508 297.0402  56.8175 13.10949415637398
Epoch: 2026-05-06T03:50Z
TLE epoch observation values (Epoch: 2026-05-06T03:50:39.143Z)
Latitude
-0.00004°
Longitude
-104.99747°
Altitude
983.271 km
Speed
7.475 km/s
True Right ascension
11h 46m 45s
True Declination
0° 00' 00"
Sunlit
Object was in full shadow at epoch
Visualization orbit readout
Latitude
Unknown
Longitude
Unknown
Altitude
Unknown
Speed
Unknown
Apparent Right ascension
Unknown
Apparent Declination
Unknown
Sunlit
N/A
Visualization observer readout
Local Sidereal Time
20:29:21
Azimuth
Unknown
Elevation
Unknown
Doppler factor
Unknown
Orbital elements
Apogee altitude
1,692.892 km
Perigee altitude
744.063 km
Semi-major axis
7,596.614 km
Eccentricity
0.06245
Inclination
62.2239°
RAAN
176.6903°
Arg. of periapsis
297.0402°
True anomaly
63.06123°
Mean anomaly
56.8175°
Eccentric anomaly
59.91358°
Mean motion
3.27803 °/min
Orbital period
109.82 mins
BSTAR
0.0021376
Loading maneuver chart data...
Computing Atmospheric mass density...

Documentation

Showing up to 5 results
|